TimeEST,TemperatureF,Dew PointF,Humidity,Sea Level PressureIn,VisibilityMPH,Wind Direction,Wind SpeedMPH,Gust SpeedMPH,PrecipitationIn,Events,Conditions,WindDirDegrees,DateUTC
12:15 AM,39.2,37.4,93,29.99,7.0,Calm,Calm,-,N/A,,Scattered Clouds,0,2013-01-17 05:15:00
12:35 AM,37.4,37.4,100,29.98,7.0,Calm,Calm,-,N/A,,Clear,0,2013-01-17 05:35:00
12:55 AM,37.4,37.4,100,29.99,7.0,South,3.5,-,N/A,,Clear,190,2013-01-17 05:55:00
1:15 AM,37.4,37.4,100,29.99,7.0,Calm,Calm,-,N/A,,Clear,0,2013-01-17 06:15:00
1:35 AM,37.4,37.4,100,30.00,7.0,SSE,3.5,-,N/A,,Clear,160,2013-01-17 06:35:00
1:55 AM,41.0,39.2,93,30.01,10.0,WSW,3.5,-,N/A,,Scattered Clouds,240,2013-01-17 06:55:00
2:15 AM,41.0,37.4,87,30.01,10.0,Calm,Calm,-,N/A,,Scattered Clouds,0,2013-01-17 07:15:00
2:35 AM,41.0,37.4,87,30.01,10.0,Calm,Calm,-,N/A,,Scattered Clouds,0,2013-01-17 07:35:00
2:55 AM,41.0,37.4,87,29.99,10.0,Calm,Calm,-,N/A,,Clear,0,2013-01-17 07:55:00
3:15 AM,42.8,33.8,70,30.01,10.0,West,9.2,-,N/A,,Clear,270,2013-01-17 08:15:00
3:35 AM,42.8,32.0,66,30.00,10.0,West,5.8,-,N/A,,Clear,280,2013-01-17 08:35:00
3:55 AM,41.0,32.0,70,30.00,10.0,Calm,Calm,-,N/A,,Clear,0,2013-01-17 08:55:00
4:15 AM,39.2,32.0,75,30.01,10.0,WNW,4.6,-,N/A,,Clear,290,2013-01-17 09:15:00
4:35 AM,39.2,32.0,75,30.00,10.0,Calm,Calm,-,N/A,,Scattered Clouds,0,2013-01-17 09:35:00
4:55 AM,41.0,32.0,70,30.02,10.0,SW,3.5,-,N/A,,Overcast,220,2013-01-17 09:55:00
5:15 AM,42.8,28.4,57,30.01,10.0,West,4.6,-,N/A,,Overcast,270,2013-01-17 10:15:00
5:35 AM,42.8,26.6,53,30.03,10.0,West,5.8,-,N/A,,Overcast,270,2013-01-17 10:35:00
5:55 AM,42.8,26.6,53,30.00,10.0,WNW,8.1,-,N/A,,Overcast,300,2013-01-17 10:55:00
6:15 AM,41.0,28.4,61,30.02,10.0,NW,10.4,-,N/A,,Overcast,320,2013-01-17 11:15:00
6:35 AM,39.2,28.4,65,30.04,10.0,NNW,9.2,-,N/A,,Scattered Clouds,330,2013-01-17 11:35:00
6:55 AM,39.2,28.4,65,30.04,10.0,NNW,5.8,-,N/A,,Clear,330,2013-01-17 11:55:00
7:15 AM,39.2,28.4,65,30.04,10.0,NNW,8.1,-,N/A,,Clear,330,2013-01-17 12:15:00
7:35 AM,37.4,28.4,70,30.08,10.0,Calm,Calm,-,N/A,,Clear,0,2013-01-17 12:35:00
7:55 AM,37.4,30.2,75,30.08,10.0,Calm,Calm,-,N/A,,Clear,0,2013-01-17 12:55:00
8:15 AM,37.4,30.2,75,30.10,10.0,Calm,Calm,-,N/A,,Clear,0,2013-01-17 13:15:00
8:35 AM,37.4,30.2,75,30.09,10.0,Calm,Calm,-,N/A,,Clear,0,2013-01-17 13:35:00
8:55 AM,39.2,30.2,70,30.11,10.0,Calm,Calm,-,N/A,,Scattered Clouds,0,2013-01-17 13:55:00
9:15 AM,39.2,30.2,70,30.12,10.0,WNW,10.4,-,N/A,,Scattered Clouds,290,2013-01-17 14:15:00
9:35 AM,39.2,30.2,70,30.11,10.0,WNW,5.8,-,N/A,,Scattered Clouds,300,2013-01-17 14:35:00
9:55 AM,39.2,30.2,70,30.12,10.0,NW,5.8,-,N/A,,Clear,310,2013-01-17 14:55:00
10:15 AM,41.0,30.2,65,30.11,10.0,North,5.8,-,N/A,,Clear,350,2013-01-17 15:15:00
10:35 AM,41.0,32.0,70,30.12,10.0,NNW,6.9,-,N/A,,Clear,340,2013-01-17 15:35:00
10:55 AM,41.0,32.0,70,30.12,10.0,NNW,5.8,-,N/A,,Clear,330,2013-01-17 15:55:00
11:15 AM,39.2,32.0,75,30.11,10.0,NW,4.6,-,N/A,,Scattered Clouds,320,2013-01-17 16:15:00
11:35 AM,39.2,32.0,75,30.10,10.0,NW,5.8,-,N/A,,Scattered Clouds,320,2013-01-17 16:35:00
11:55 AM,39.2,32.0,75,30.10,10.0,NW,12.7,-,N/A,,Mostly Cloudy,310,2013-01-17 16:55:00
12:15 PM,39.2,32.0,75,30.10,10.0,NW,12.7,16.1,N/A,,Mostly Cloudy,320,2013-01-17 17:15:00
12:35 PM,39.2,32.0,75,30.09,10.0,NNW,10.4,-,N/A,,Overcast,330,2013-01-17 17:35:00
12:55 PM,39.2,32.0,75,30.08,10.0,NW,6.9,-,N/A,,Overcast,320,2013-01-17 17:55:00
1:15 PM,39.2,32.0,75,30.08,10.0,NNW,4.6,-,N/A,,Overcast,330,2013-01-17 18:15:00
1:55 PM,37.4,32.0,81,30.07,10.0,NNW,3.5,-,N/A,,Mostly Cloudy,330,2013-01-17 18:55:00
2:15 PM,37.4,32.0,81,30.05,10.0,NNW,4.6,-,N/A,,Mostly Cloudy,340,2013-01-17 19:15:00
2:35 PM,37.4,32.0,81,30.05,10.0,North,3.5,-,N/A,,Scattered Clouds,350,2013-01-17 19:35:00
2:55 PM,37.4,32.0,81,30.07,10.0,Calm,Calm,-,N/A,,Mostly Cloudy,0,2013-01-17 19:55:00
3:15 PM,37.4,32.0,81,30.06,10.0,Calm,Calm,-,N/A,,Overcast,0,2013-01-17 20:15:00
3:35 PM,37.4,32.0,81,30.08,10.0,Calm,Calm,-,N/A,,Mostly Cloudy,0,2013-01-17 20:35:00
3:55 PM,37.4,32.0,81,30.07,10.0,Calm,Calm,-,N/A,,Mostly Cloudy,0,2013-01-17 20:55:00
4:15 PM,35.6,32.0,87,30.09,10.0,SE,3.5,-,N/A,,Scattered Clouds,130,2013-01-17 21:15:00
4:35 PM,35.6,32.0,87,30.10,10.0,SE,3.5,-,N/A,,Mostly Cloudy,130,2013-01-17 21:35:00
4:55 PM,35.6,32.0,87,30.10,10.0,East,3.5,-,N/A,,Overcast,100,2013-01-17 21:55:00
5:15 PM,35.6,32.0,87,30.10,10.0,ESE,3.5,-,N/A,,Overcast,120,2013-01-17 22:15:00
5:35 PM,35.6,32.0,87,30.10,10.0,Calm,Calm,-,N/A,,Overcast,0,2013-01-17 22:35:00
5:55 PM,35.6,32.0,87,30.10,10.0,Calm,Calm,-,N/A,,Mostly Cloudy,0,2013-01-17 22:55:00
6:15 PM,35.6,32.0,87,30.11,10.0,Calm,Calm,-,N/A,,Mostly Cloudy,0,2013-01-17 23:15:00
6:35 PM,33.8,32.0,93,30.10,10.0,Calm,Calm,-,N/A,,Mostly Cloudy,0,2013-01-17 23:35:00
6:55 PM,33.8,32.0,93,30.11,10.0,Calm,Calm,-,N/A,,Overcast,0,2013-01-17 23:55:00
7:15 PM,33.8,32.0,93,30.11,10.0,Calm,Calm,-,N/A,,Mostly Cloudy,0,2013-01-18 00:15:00
7:55 PM,33.8,32.0,93,30.08,10.0,Calm,Calm,-,N/A,,Scattered Clouds,0,2013-01-18 00:55:00
8:35 PM,33.8,32.0,93,30.09,10.0,Calm,Calm,-,N/A,,Scattered Clouds,0,2013-01-18 01:35:00
8:55 PM,33.8,32.0,93,30.09,10.0,WNW,3.5,-,N/A,,Scattered Clouds,290,2013-01-18 01:55:00
9:15 PM,33.8,32.0,93,30.10,10.0,NW,4.6,-,N/A,,Scattered Clouds,310,2013-01-18 02:15:00
9:55 PM,35.6,32.0,87,30.07,10.0,NNW,4.6,-,N/A,,Clear,330,2013-01-18 02:55:00
10:15 PM,35.6,30.2,81,30.09,10.0,Calm,Calm,-,N/A,,Clear,0,2013-01-18 03:15:00
10:35 PM,35.6,32.0,87,30.09,10.0,WNW,3.5,-,N/A,,Clear,300,2013-01-18 03:35:00
10:55 PM,35.6,30.2,81,30.09,10.0,WNW,4.6,-,N/A,,Clear,290,2013-01-18 03:55:00